KX-09 (44520 NORAD) Tracking and Keplerian Element Data

This shows tracking and keplerian element data for the satellite.

Feedback or suggestion? Click here.




ElementValue
Catalog44520
NameKX-09
Epoch Orbit438
Epoch Day272.38972319
Epoch Year2019
RAAN277.838
Inclination97.7905
Eccentricity0.0011441
Argument of Perigee188.5861
Mean Anonmoly171.5169
Mean Motion14.89399036
Decay Rate5.4E-06
L11 44520U 19058B 19272.38972319 .00000540 00000-0 62557-4 0 9999
L22 44520 97.7905 277.8380 0011441 188.5861 171.5169 14.89399036 4384

Live tracking and technical data element details for KX-09 (NORAD 44520). KX-09 can be tracked NOW for your location showing map with azimuth and elevation plus other details from your city location.

Track the satellite on the map from your city or location and see movement details for azimuth, elevation, latitude, longitude, range, height, and movement on the map or in text.







IsCatalogInMostPopularTable: catalog: 44520, numindb: 13
Update: records affected: 1



GetName: 44520 KX-09

Hit Count: updated at: Wed, 23 Oct 2019 00:29:18 GMT